TimeCDT,TemperatureF,Dew PointF,Humidity,Sea Level PressureIn,VisibilityMPH,Wind Direction,Wind SpeedMPH,Gust SpeedMPH,PrecipitationIn,Events,Conditions,WindDirDegrees,DateUTC
12:15 AM,75.2,68.0,78,29.79,10.0,Calm,Calm,-,N/A,,Clear,0,2013-09-01 05:15:00
12:35 AM,73.4,68.0,83,29.80,10.0,Calm,Calm,-,N/A,,Clear,0,2013-09-01 05:35:00
12:55 AM,73.4,68.0,83,29.80,10.0,Calm,Calm,-,N/A,,Clear,0,2013-09-01 05:55:00
1:15 AM,73.4,68.0,83,29.80,10.0,Calm,Calm,-,N/A,,Clear,0,2013-09-01 06:15:00
1:35 AM,73.4,68.0,83,29.80,10.0,South,3.5,-,N/A,,Clear,170,2013-09-01 06:35:00
1:55 AM,71.6,66.2,83,29.80,10.0,South,3.5,-,N/A,,Clear,180,2013-09-01 06:55:00
2:15 AM,71.6,68.0,88,29.80,10.0,South,3.5,-,N/A,,Clear,170,2013-09-01 07:15:00
2:35 AM,71.6,66.2,83,29.80,10.0,South,4.6,-,N/A,,Clear,180,2013-09-01 07:35:00
2:55 AM,71.6,68.0,88,29.80,10.0,South,3.5,-,N/A,,Clear,190,2013-09-01 07:55:00
3:15 AM,71.6,66.2,83,29.80,10.0,South,4.6,-,N/A,,Clear,190,2013-09-01 08:15:00
3:35 AM,69.8,68.0,94,29.80,10.0,South,4.6,-,N/A,,Clear,180,2013-09-01 08:35:00
3:55 AM,69.8,66.2,88,29.80,10.0,South,3.5,-,N/A,,Clear,180,2013-09-01 08:55:00
4:15 AM,69.8,66.2,88,29.80,10.0,SSW,4.6,-,N/A,,Clear,210,2013-09-01 09:15:00
4:35 AM,69.8,68.0,94,29.82,10.0,West,5.8,-,N/A,,Clear,270,2013-09-01 09:35:00
4:55 AM,71.6,64.4,78,29.82,10.0,SW,4.6,-,N/A,,Clear,230,2013-09-01 09:55:00
5:15 AM,71.6,64.4,78,29.82,10.0,SSW,3.5,-,N/A,,Clear,210,2013-09-01 10:15:00
5:35 AM,71.6,64.4,78,29.82,10.0,Calm,Calm,-,N/A,,Clear,0,2013-09-01 10:35:00
5:55 AM,69.8,64.4,83,29.83,10.0,West,3.5,-,N/A,,Clear,270,2013-09-01 10:55:00
6:17 AM,71.6,64.4,78,29.83,10.0,West,11.5,-,N/A,,Mostly Cloudy,280,2013-09-01 11:17:00
6:55 AM,78.8,64.4,61,29.83,10.0,NW,11.5,-,N/A,,Mostly Cloudy,320,2013-09-01 11:55:00
7:55 AM,80.6,66.2,61,29.86,10.0,NNW,11.5,-,N/A,,Mostly Cloudy,330,2013-09-01 12:55:00
8:50 AM,82.4,66.2,58,29.87,10.0,NNW,9.2,-,N/A,,Mostly Cloudy,340,2013-09-01 13:50:00
9:50 AM,86.0,66.2,51,29.90,10.0,NNW,13.8,18.4,N/A,,Mostly Cloudy,340,2013-09-01 14:50:00
11:50 AM,86.0,66.2,51,29.93,10.0,North,11.5,19.6,N/A,,Mostly Cloudy,350,2013-09-01 16:50:00
12:55 PM,84.2,66.2,55,29.91,10.0,North,11.5,-,N/A,,Overcast,10,2013-09-01 17:55:00
1:50 PM,86.0,66.2,51,29.92,10.0,North,11.5,-,N/A,,Overcast,360,2013-09-01 18:50:00
2:50 PM,84.2,68.0,58,29.91,10.0,NNW,9.2,-,N/A,,Overcast,330,2013-09-01 19:50:00
3:50 PM,84.2,71.6,66,29.91,10.0,WNW,10.4,-,N/A,,Overcast,290,2013-09-01 20:50:00
4:50 PM,87.8,69.8,55,29.89,10.0,WNW,5.8,-,N/A,,Overcast,300,2013-09-01 21:50:00
5:50 PM,91.4,68.0,46,29.88,10.0,Calm,Calm,-,N/A,,Scattered Clouds,0,2013-09-01 22:50:00
6:50 PM,89.6,68.0,49,29.87,10.0,WNW,8.1,-,N/A,,Partly Cloudy,300,2013-09-01 23:50:00
7:50 PM,84.2,69.8,62,29.88,10.0,Calm,Calm,-,N/A,,Scattered Clouds,0,2013-09-02 00:50:00
8:50 PM,77.0,71.6,83,29.90,10.0,West,5.8,-,N/A,,Scattered Clouds,280,2013-09-02 01:50:00
9:15 PM,77.0,69.8,78,29.91,7.0,NNW,4.6,-,N/A,,Clear,340,2013-09-02 02:15:00
9:35 PM,75.2,69.8,83,29.92,10.0,NE,6.9,-,N/A,,Clear,40,2013-09-02 02:35:00
9:55 PM,75.2,68.0,78,29.93,10.0,North,6.9,-,N/A,,Clear,360,2013-09-02 02:55:00
10:15 PM,73.4,68.0,83,29.93,10.0,NNE,4.6,-,N/A,,Clear,20,2013-09-02 03:15:00
10:35 PM,73.4,68.0,83,29.94,10.0,NNE,5.8,-,N/A,,Clear,30,2013-09-02 03:35:00
10:55 PM,73.4,68.0,83,29.94,10.0,NNE,3.5,-,N/A,,Clear,20,2013-09-02 03:55:00
11:15 PM,73.4,68.0,83,29.94,7.0,North,5.8,-,N/A,,Clear,10,2013-09-02 04:15:00
11:35 PM,71.6,68.0,88,29.94,10.0,North,5.8,-,N/A,,Scattered Clouds,360,2013-09-02 04:35:00
11:55 PM,73.4,68.0,83,29.95,10.0,NNW,5.8,-,N/A,,Mostly Cloudy,330,2013-09-02 04:55:00